User: anonymous
Location: Unspecified
(0.0000°N, 0.0000°E)
Time: 04:00:49
(UTC+00:00)
Language:

OPTUS D2 - Orbit

View from above orbital plane
View from above orbital plane
View from above satellite
View from above satellite

Ground track
Ground track

The orbit data is extracted from the following two-line orbital elements,

1 32252U 07044A   14273.18188139 -.00000195  00000-0  00000+0 0  5187
2 32252 000.0275 096.1669 0002684 087.3713 042.8211 01.00272748 25585
Epoch (UTC): 30 September 2014 04:21:54
Eccentricity: 0.0002684
inclination: 0.0275°
perigee height: 35774 km
apogee height: 35797 km
right ascension of ascending node: 96.1669°
argument of perigee: 87.3713°
revolutions per day: 1.00272748
mean anomaly at epoch: 42.8211°
orbit number at epoch: 2558

The dashed part of the orbit path shows where the satellite is in the earth's shadow,  

DLR